Showing default

IRIDE-MS2-HEO-5, 64571

Orbit data source: Space-Track

IRIDE-MS2-HEO-5, 64571 is an Italian payload satellite in SSO that was launched on Mon, 23 Jun 2025 UTC via an FALCON 9 launch vehicle from the Air Force Western Test Range (AFWTR). Payload-class satellites include a variety of spacecraft equipped with specific instruments for various scientific and technological missions. These include communications satellites like Starlink; space stations such as the ISS; scientific satellites like the Hubble; Earth observation satellites from companies like Planet Labs, Umbra, and HawkEye 360; GPS; miniature CubeSats for education and research; and military/defense satellites.

Loading next visibility...
Identifier
64571, 2025-135AV
Orbit
SSO
Country
Flag of ITIT
Related business
Manufacturer
ArgoTec
Mission
Operational Civil Imaging
Bus & Motor
HAWK, Unknown motor
Mass
65 kg wet, 65 kg dry
Launch date (UTC)
2025-06-23 (1 year ago)
Launch vehicle
FALCON 9
Launch site
Air Force Western Test Range (AFWTR)
Object type
Payload
Rocket body
Debris
Shape & HBR
Box + 2 Pan, 3.0 m
Radar Cross Section
0.683 m², Medium (>0.1 m² and < 1m²)

Expand to show TLE details & history
Last TLE update: 7 hours ago

TLE from 7 hours ago
0 IRIDE-MS2-HEO-5
1 64571U 25135AV  26171.54812179  .00001314  00000-0  13526-3 0  9992
2 64571  97.7731 285.6783 0000912  48.6897 311.4400 14.91957524 54382
Epoch: 2026-06-20T13:09Z
TLE epoch observation values (Epoch: 2026-06-20T13:09:17.722Z)
Latitude
-0.00006°
Longitude
179.5933°
Altitude
594.453 km
Speed
7.563 km/s
True Right ascension
19h 02m 42s
True Declination
0° 00' 00"
Sunlit
Object was in full shadow at epoch
Visualization orbit readout
Latitude
Unknown
Longitude
Unknown
Altitude
Unknown
Speed
Unknown
Apparent Right ascension
Unknown
Apparent Declination
Unknown
Sunlit
N/A
Visualization observer readout
Local Sidereal Time
07:19:38
Azimuth
Unknown
Elevation
Unknown
Doppler factor
Unknown
Orbital elements
Apogee altitude
589.487 km
Perigee altitude
588.216 km
Semi-major axis
6,966.989 km
Eccentricity
0.00009
Inclination
97.7731°
RAAN
285.6783°
Arg. of periapsis
48.6897°
True anomaly
311.43217°
Mean anomaly
311.44°
Eccentric anomaly
311.43608°
Mean motion
3.73229 °/min
Orbital period
96.46 mins
BSTAR
0.00013526
Loading maneuver chart data...
Computing Atmospheric mass density...
Loading historical data...
Loading historical data...
Loading historical data...
Loading historical data...
Loading historical data...
Loading historical data...
Loading historical data...

Documentation

Showing up to 5 results
|